Location: *
(51.4660°N, 0.3360°W)
Time: 18:38:29
(UTC+00:00)

Cosmos 1603 - Pass Details

Date: 19 September 2019
Orbit: 830 x 860 km, 71.0° (Epoch: 23 October)

Event Time Altitude Azimuth Distance (km) Brightness Sun altitude
Rises 21:34:46 0° 328° (NNW) 3,407 8.0 -29.4°
Reaches altitude 10° 21:37:13 10° 327° (NNW) 2,473 7.0 -29.7°
Enters shadow 21:42:19 67° 286° (WNW) 921 3.9 -30.2°
